When you browse on this site, cookies collect data to enhance your experience and personalize the content and advertising you see.
Visit our Privacy Policy to learn more. By continuing to use the site, you agree to this use of cookies and data.
  • In Österreich
  • Länderverzeichnis
  • Für 7 Tage
  • Wassertemperatur
  • Satellitenkarten
  • Wetterkarte
  • News
  • Widgets
  • user-avatar
    Anmelden

    Stündliche Wetter Rincon

    Heute, 21 März, Donnerstag

    Zeit Temperatur Niederschläge Wind Luftdruck Luftfeuchtigkeit
    00:00 +24°C° 0 mm 1 m/S 761 mmHg 90%
    01:00 +24°C° 0 mm 2 m/S 760 mmHg 90%
    02:00 +24°C° 0 mm 2 m/S 760 mmHg 90%
    03:00 +24°C° 0 mm 2 m/S 760 mmHg 90%
    04:00 +24°C° 0 mm 3 m/S 760 mmHg 90%
    05:00 +24°C° 0 mm 3 m/S 760 mmHg 90%
    06:00 +25°C° 0 mm 3 m/S 760 mmHg 88%
    07:00 +25°C° 0 mm 3 m/S 760 mmHg 85%
    08:00 +26°C° 0 mm 4 m/S 761 mmHg 82%
    09:00 +28°C° 0 mm 3 m/S 761 mmHg 73%
    10:00 +30°C° 0 mm 3 m/S 761 mmHg 64%
    11:00 +31°C° 0 mm 2 m/S 762 mmHg 55%
    12:00 +31°C° 0.1 mm 2 m/S 761 mmHg 58%
    13:00 +31°C° 0.1 mm 2 m/S 761 mmHg 60%
    14:00 +30°C° 0.1 mm 2 m/S 760 mmHg 62%
    15:00 +30°C° 0.1 mm 2 m/S 760 mmHg 67%
    16:00 +29°C° 0.1 mm 2 m/S 759 mmHg 72%
    17:00 +28°C° 0.1 mm 2 m/S 759 mmHg 76%
    18:00 +27°C° 0.1 mm 2 m/S 759 mmHg 78%
    19:00 +27°C° 0.1 mm 2 m/S 760 mmHg 80%
    20:00 +27°C° 0.1 mm 1 m/S 760 mmHg 82%
    21:00 +26°C° 0.1 mm 1 m/S 760 mmHg 83%
    22:00 +26°C° 0.1 mm 1 m/S 761 mmHg 84%
    23:00 +25°C° 0.1 mm 1 m/S 761 mmHg 85%

    Morgen, 22 März, Freitag

    Zeit Temperatur Niederschläge Wind Luftdruck Luftfeuchtigkeit
    00:00 +25°C° 0 mm 2 m/S 761 mmHg 85%
    01:00 +24°C° 0 mm 2 m/S 760 mmHg 86%
    02:00 +24°C° 0 mm 2 m/S 760 mmHg 87%
    03:00 +24°C° 0 mm 2 m/S 760 mmHg 87%
    04:00 +22°C° 0 mm 3 m/S 760 mmHg 87%
    05:00 +22°C° 0 mm 3 m/S 760 mmHg 87%
    06:00 +24°C° 0 mm 2 m/S 760 mmHg 84%
    07:00 +25°C° 0 mm 2 m/S 761 mmHg 80%
    08:00 +26°C° 0 mm 2 m/S 761 mmHg 77%
    09:00 +28°C° 0 mm 2 m/S 762 mmHg 70%
    10:00 +30°C° 0 mm 1 m/S 762 mmHg 63%
    11:00 +32°C° 0 mm 1 m/S 762 mmHg 56%
    12:00 +31°C° 0.1 mm 1 m/S 762 mmHg 61%
    13:00 +30°C° 0.1 mm 2 m/S 761 mmHg 67%
    14:00 +29°C° 0.1 mm 2 m/S 761 mmHg 73%
    15:00 +29°C° 0.1 mm 2 m/S 760 mmHg 75%
    16:00 +28°C° 0.1 mm 2 m/S 760 mmHg 77%
    17:00 +28°C° 0.1 mm 2 m/S 759 mmHg 79%
    18:00 +28°C° 0.1 mm 2 m/S 760 mmHg 82%
    19:00 +27°C° 0.1 mm 2 m/S 760 mmHg 84%
    20:00 +27°C° 0.1 mm 3 m/S 761 mmHg 86%
    21:00 +26°C° 0.1 mm 3 m/S 761 mmHg 87%
    22:00 +26°C° 0.1 mm 3 m/S 761 mmHg 88%
    23:00 +25°C° 0.1 mm 4 m/S 762 mmHg 90%

    übermorgen, 23 März, Samstag

    Zeit Temperatur Niederschläge Wind Luftdruck Luftfeuchtigkeit
    00:00 +25°C° 0 mm 4 m/S 761 mmHg 90%
    01:00 +23°C° 0 mm 4 m/S 761 mmHg 90%
    02:00 +23°C° 0 mm 4 m/S 761 mmHg 90%
    03:00 +23°C° 0 mm 4 m/S 761 mmHg 90%
    04:00 +23°C° 0 mm 4 m/S 760 mmHg 91%
    05:00 +22°C° 0 mm 4 m/S 760 mmHg 91%
    06:00 +23°C° 0 mm 4 m/S 761 mmHg 89%
    07:00 +25°C° 0 mm 4 m/S 761 mmHg 86%
    08:00 +25°C° 0 mm 4 m/S 762 mmHg 84%
    09:00 +27°C° 0 mm 4 m/S 762 mmHg 74%
    10:00 +29°C° 0 mm 4 m/S 763 mmHg 64%
    11:00 +32°C° 0 mm 4 m/S 763 mmHg 54%
    12:00 +31°C° 0 mm 3 m/S 763 mmHg 54%
    13:00 +33°C° 0 mm 3 m/S 762 mmHg 55%
    14:00 +33°C° 0 mm 3 m/S 761 mmHg 55%
    15:00 +31°C° 0 mm 3 m/S 761 mmHg 59%
    16:00 +30°C° 0 mm 3 m/S 761 mmHg 62%
    17:00 +29°C° 0 mm 3 m/S 761 mmHg 66%
    18:00 +28°C° 0.1 mm 3 m/S 761 mmHg 70%
    19:00 +28°C° 0.1 mm 3 m/S 761 mmHg 73%
    20:00 +27°C° 0.1 mm 3 m/S 762 mmHg 77%
    21:00 +27°C° 0 mm 4 m/S 762 mmHg 77%
    22:00 +26°C° 0 mm 4 m/S 762 mmHg 78%
    23:00 +26°C° 0 mm 5 m/S 762 mmHg 79%

    24 März, Sonntag

    Zeit Temperatur Niederschläge Wind Luftdruck Luftfeuchtigkeit
    00:00 +26°C° 0 mm 4 m/S 762 mmHg 82%
    01:00 +25°C° 0 mm 4 m/S 761 mmHg 85%
    02:00 +23°C° 0 mm 4 m/S 761 mmHg 88%
    03:00 +23°C° 0 mm 4 m/S 761 mmHg 88%
    04:00 +23°C° 0 mm 4 m/S 761 mmHg 89%
    05:00 +23°C° 0 mm 4 m/S 761 mmHg 89%
    06:00 +25°C° 0 mm 4 m/S 761 mmHg 86%
    07:00 +25°C° 0 mm 4 m/S 762 mmHg 83%
    08:00 +26°C° 0 mm 4 m/S 762 mmHg 80%
    09:00 +28°C° 0 mm 4 m/S 763 mmHg 73%
    10:00 +30°C° 0 mm 3 m/S 763 mmHg 66%
    11:00 +33°C° 0 mm 3 m/S 763 mmHg 58%
    12:00 +31°C° 0.1 mm 3 m/S 762 mmHg 61%
    13:00 +31°C° 0.1 mm 3 m/S 762 mmHg 64%
    14:00 +30°C° 0.1 mm 3 m/S 761 mmHg 67%
    15:00 +30°C° 0.6 mm 3 m/S 761 mmHg 69%
    16:00 +30°C° 0.6 mm 2 m/S 760 mmHg 71%
    17:00 +30°C° 0.6 mm 2 m/S 760 mmHg 73%
    18:00 +28°C° 0.3 mm 3 m/S 760 mmHg 78%
    19:00 +27°C° 0.3 mm 3 m/S 761 mmHg 83%
    20:00 +26°C° 0.3 mm 4 m/S 761 mmHg 87%
    21:00 +26°C° 0.1 mm 4 m/S 761 mmHg 88%
    22:00 +26°C° 0.1 mm 5 m/S 761 mmHg 89%
    23:00 +25°C° 0.1 mm 5 m/S 761 mmHg 90%

    25 März, Montag

    Zeit Temperatur Niederschläge Wind Luftdruck Luftfeuchtigkeit
    00:00 +25°C° 0.1 mm 5 m/S 761 mmHg 90%
    01:00 +25°C° 0.1 mm 4 m/S 760 mmHg 91%
    02:00 +25°C° 0.1 mm 4 m/S 760 mmHg 91%
    03:00 +25°C° 0.2 mm 4 m/S 760 mmHg 92%
    04:00 +25°C° 0.2 mm 4 m/S 760 mmHg 92%
    05:00 +25°C° 0.2 mm 4 m/S 760 mmHg 92%
    06:00 +25°C° 0.2 mm 4 m/S 760 mmHg 89%
    07:00 +26°C° 0.2 mm 4 m/S 761 mmHg 87%
    08:00 +27°C° 0.2 mm 4 m/S 761 mmHg 84%
    09:00 +28°C° 0 mm 3 m/S 761 mmHg 75%
    10:00 +30°C° 0 mm 3 m/S 761 mmHg 66%
    11:00 +32°C° 0 mm 2 m/S 761 mmHg 56%
    12:00 +32°C° 0.1 mm 2 m/S 761 mmHg 57%
    13:00 +32°C° 0.1 mm 2 m/S 760 mmHg 57%
    14:00 +32°C° 0.1 mm 2 m/S 760 mmHg 57%
    15:00 +32°C° 0.3 mm 2 m/S 759 mmHg 61%
    16:00 +31°C° 0.3 mm 2 m/S 759 mmHg 64%
    17:00 +30°C° 0.3 mm 2 m/S 759 mmHg 67%
    18:00 +29°C° 0.2 mm 2 m/S 759 mmHg 73%
    19:00 +28°C° 0.2 mm 3 m/S 760 mmHg 79%
    20:00 +26°C° 0.2 mm 3 m/S 760 mmHg 85%
    21:00 +26°C° 0 mm 3 m/S 760 mmHg 86%
    22:00 +26°C° 0 mm 3 m/S 760 mmHg 87%
    23:00 +26°C° 0 mm 3 m/S 761 mmHg 88%

    26 März, Dienstag

    Zeit Temperatur Niederschläge Wind Luftdruck Luftfeuchtigkeit
    00:00 +25°C° 0 mm 3 m/S 760 mmHg 89%
    01:00 +25°C° 0 mm 3 m/S 760 mmHg 90%
    02:00 +25°C° 0 mm 3 m/S 759 mmHg 90%
    03:00 +25°C° 0 mm 3 m/S 759 mmHg 91%
    04:00 +25°C° 0 mm 3 m/S 759 mmHg 91%
    05:00 +25°C° 0 mm 3 m/S 759 mmHg 91%
    06:00 +25°C° 0 mm 3 m/S 760 mmHg 88%
    07:00 +26°C° 0 mm 3 m/S 760 mmHg 85%
    08:00 +27°C° 0 mm 4 m/S 761 mmHg 82%
    09:00 +29°C° 0 mm 3 m/S 761 mmHg 74%
    10:00 +30°C° 0 mm 3 m/S 761 mmHg 66%
    11:00 +32°C° 0 mm 2 m/S 761 mmHg 58%
    12:00 +32°C° 0.3 mm 2 m/S 761 mmHg 58%
    13:00 +32°C° 0.3 mm 2 m/S 760 mmHg 59%
    14:00 +32°C° 0.3 mm 2 m/S 759 mmHg 60%
    15:00 +31°C° 0.6 mm 2 m/S 759 mmHg 59%
    16:00 +31°C° 0.6 mm 2 m/S 759 mmHg 59%
    17:00 +31°C° 0.6 mm 2 m/S 759 mmHg 59%
    18:00 +29°C° 0 mm 2 m/S 759 mmHg 65%
    19:00 +28°C° 0 mm 2 m/S 760 mmHg 71%
    20:00 +26°C° 0 mm 2 m/S 760 mmHg 76%
    21:00 +26°C° 0 mm 2 m/S 760 mmHg 78%
    22:00 +25°C° 0 mm 2 m/S 760 mmHg 79%
    23:00 +25°C° 0 mm 2 m/S 761 mmHg 81%
    Mehr zeigen